Regional Weather Roundup
Issued by NWS Burlington, VT

Home | Current Version | Previous Version | Text Only | Print | Product List | Glossary On
Versions: 1 2 3 4 5 6 7 8 9 10 11 12 13 14 15 16 17 18 19 20 21 22 23 24 25 26 27 28 29 30 31 32 33 34 35 36 37 38 39 40 41 42 43 44 45 46 47 48 49 50
000
ASUS41 KBTV 031530
RWRBTV
VERMONT REGIONAL WEATHER ROUNDUP
NATIONAL WEATHER SERVICE BURLINGTON VT
1100 AM EDT WED JUN 03 2015

NOTE: "FAIR" INDICATES FEW OR NO CLOUDS BELOW 12,000 FEET WITH NO
SIGNIFICANT WEATHER AND/OR OBSTRUCTIONS TO VISIBILITY.

* THESE REPORTS ARE NOT UNDER NWS QUALITY CONTROL AND/OR DO NOT
  REPORT WEATHER SUCH AS PRECIPITATION AND FOG.

VTZ001>019-031600-
_____VERMONT_____


CITY           SKY/WX    TMP DP  RH WIND       PRES   REMARKS
BURLINGTON     PTSUNNY   54  41  61 NW9       30.30S
MONTPELIER     PTSUNNY   51  38  60 N6        30.30F
MORRISVILLE    MOSUNNY   54  39  57 N6        30.29F
ST. JOHNSBURY*   N/A     55  38  52 MISG      30.25F
LYNDONVILLE*   PTSUNNY   53  38  57 N10       30.27F
MIDDLEBURY*    PTSUNNY   56  44  64 NW10G18   30.28R
RUTLAND*       SUNNY     55  39  54 N6        30.26F
SPRINGFIELD    SUNNY     57  37  47 NW8       30.25S
HIGHGATE*      CLOUDY    53  42  66 NW5       30.30S
NEWPORT*       PTSUNNY   50  39  65 NE3       30.28F
BENNINGTON     SUNNY     57  44  62 NW8       30.24F
SUTTON*          N/A     50 N/A N/A MISG        N/A
GALLUP MILLS*    N/A     50 N/A N/A MISG        N/A
MT. MANSFIELD*   N/A     45 N/A N/A CALM        N/A

_____LAKE CHAMPLAIN_____


CITY           SKY/WX    TMP DP  RH WIND       PRES   REMARKS
BURTON ISLAND*   N/A     48  43  81 W5          N/A
COLCHESTER RF*   N/A     48  41  76 N6          N/A
DIAMOND ISL*     N/A     48  41  76 N14         N/A

$$

NYZ007-026>031-035-052-083-031600-
_____NORTHERN NEW YORK_____


CITY           SKY/WX    TMP DP  RH WIND       PRES   REMARKS
PLATTSBURGH    SUNNY     53  42  66 E9        30.30F
SARANAC LAKE   SUNNY     54  40  59 NE7       30.24F
MASSENA        MOSUNNY   59  45  59 NE7       30.28F
OGDENSBURG*    MOSUNNY   64  48  55 CALM      30.26F
POTSDAM*       SUNNY    -15 -24  64 E8        30.27S
STARK FALLS*     N/A     57 N/A N/A NE3         N/A
WATERTOWN      SUNNY     62  43  49 E9        30.25F
ALBANY         MOSUNNY   59  44  57 N9        30.27S
GLENS FALLS    PTSUNNY   58  43  57 VRB6      30.27S

$$
NHZ002-005-011-031600-
_____NEW HAMPSHIRE_____


CITY           SKY/WX    TMP DP  RH WIND       PRES   REMARKS
LEBANON        MOSUNNY   57  41  55 N12       30.25S
KEENE          SUNNY     59  41  51 NW9       30.23F
MT WASHINGTON  CLOUDY    34  27  75 N37         N/A
PLYMOUTH         N/A     57  47  69 W5        30.24S
WHITEFIELD     CLOUDY    52  39  61 VRB3      30.26S

$$

_____REGIONAL QUEBEC LOCATIONS_____


CITY           SKY/WX    TMP DP  RH WIND       PRES   REMARKS
MONTREAL       MOSUNNY   54  43  66 VRB6      30.31S
QUEBEC CITY    PTSUNNY   54  39  58 E9        30.28F
SHERBROOKE     CLOUDY    50  39  66 NW5       30.27F

_____REGIONAL ONTARIO LOCATIONS_____


CITY           SKY/WX    TMP DP  RH WIND       PRES   REMARKS
OTTAWA         MOSUNNY   61  48  63 SE8       30.26F

______KEY______
VSB  - VISIBILITY IN MILES
WCI  - WIND CHILL INDEX
HX   - HEAT INDEX
$$
NNNN


USA.gov is the U.S. government's official web portal to all federal, state and local government web resources and services.